SCP
0 0 -0 -0 -0 -0 0 0 -0 -0 -0 -0 0 0 0 0 0 0 0 0 0 0 0 0 0 0 0 0 0 0 0 0 0 0 0 0 0 0 0 0 0 0 0 0
0 0 -0 -0 -0 -0 0 -0 -0 -0 -0 0 0 0 0 0 0 0 0 0 0 0 0 0 0 0 0 0 0 0 0 0 0 0 0 0 0 0 0 0 0 0 0 0
0 0 -0 -0 -0 -0 0 -0 -0 -0 -0 0 0 0 0 0 0 0 0 0 0 0 0 0 0 0 0 0 0 0 0 0 0 0 0 0 0 0 0 0 0 0 0 0
-0 -0 -0 -0 -0 0 0 0 0 0 0 0 0 0 0 0 0 0 0 0 0 0 0 0 0 0 0 0 0 0 0 0 0 0 0 0 0 0 0 0 0 0 0 0
-0 -0 -0 -0 -0 0 0 0 0 0 0 0 0 0 0 0 0 0 0 0 0 0 0 0 0 0 0 0 0 0 0 0 0 0 0 0 0 -0 0 0 0 0 0 0
-0 -0 -0 -0 -0 0 0 0 0 0 0 0 0 0 0 0 0 0 0 0 0 0 0 0 0 0 0 0 0 0 0 0 0 0 0 0 0 0 0 0 0 0 0 0
0 0 0 0 0 0 0 0 0 0 0 0 0 0 0 0 0 0 0 0 0 0 0 0 0 0 0 0 0 0 0 0 0 0 0 0 0 0 0 0 0 0 0 0
0 0 0 0 0 0 0 0 0 0 0 0 0 0 0 0 0 0 0 0 0 0 0 0 0 0 0 0 0 0 0 0 0 0 0 0 0 0 0 0 0 0 0 0
0 0 0 0 0 0 0 0 0 0 0 0 0 0 0 0 0 0 0 0 0 0 0 0 0 -0 -0 -0 -0 0 0 0 0 0 0 0 0 0 0 0 0 0 0 0
0 0 0 0 0 0 0 0 0 0 0 0 0 0 0 0 0 0 0 0 0 0 0 0 0 -0 -0 -0 0 0 0 0 0 0 0 0 0 0 0 0 0 0 0 0
0 0 0 0 0 0 0 0 0 0 0 0 0 0 0 0 0 0 0 0 0 0 0 0 0 0 0 0 0 0 0 0 0 0 0 0 0 0 0 0 0 0 0 0
-0 0 0 0 0 0 0 0 0 0 0 0 0 0 0 0 0 0 0 0 0 0 0 0 0 0 0 0 0 0 0 0 0 0 0 0 0 0 0 0 0 0 0 0
-0 -0 0 0 0 0 0 0 0 0 0 0 0 0 0 -0 -0 0 0 0 0 0 0 0 0 0 0 -0 -0 -0 0 0 0 0 0 0 0 0 0 0 0 0 0 0
0 0 0 0 0 0 0 0 0 0 0 0 0 0 0 0 0 0 0 0 0 -0 -0 -0 0 0 -0 -0 -0 -0 -0 -0 0 0 0 0 0 0 0 0 0 0 0 0
0 0 0 0 0 0 0 0 0 0 0 0 0 0 0 0 0 0 0 0 -0 -0 -0 -0 -0 -0 -0 -0 -0 -0 -0 -0 0 0 0 0 0 -0 0 0 0 0 0 0
0 0 0 0 0 0 0 0 0 0 0 0 0 0 -0 -0 -0 -0 -0 -0 -0 -0 -0 -0 -0 -0 -0 -0 -0 -0 -0 -0 0 0 0 0 0 -0 0 0 0 0 0 0
0 0 0 0 0 0 0 0 0 0 0 0 0 0 0 -0 -0 -0 -0 -0 -0 -0 -0 0 0 0 0 0 0 -0 -0 -0 -0 0 0 0 0 -0 0 0 0 0 0 0
0 0 0 0 0 0 0 0 0 0 0 0 0 0 0 -0 -0 -0 -0 0 0 0 -0 0 0 -0 0 0 0 0 0 0 0 0 0 0 0 -0 0 0 0 0 0 0
0 0 0 0 0 0 0 0 0 0 0 0 0 0 0 -0 -0 0 0 0 0 0 0 0 0 -0 0 0 0 0 0 0 0 0 0 0 0 -0 0 0 0 0 0 0
0 0 0 0 0 0 0 0 0 0 0 0 0 -0 -0 -0 0 0 0 0 0 0 0 0 0 0 0 0 0 0 0 0 0 0 0 0 0 0 0 0 0 0 0 0
0 0 0 0 0 0 0 0 0 0 0 -0 -0 -0 -0 -0 -0 0 0 0 0 0 0 0 0 0 0 0 0 0 -0 -0 -0 0 0 0 0 -0 -0 0 0 0 0 0
0 0 0 0 0 0 0 0 0 0 0 0 0 0 0 0 -0 -0 0 0 0 0 0 0 0 0 0 0 0 0 -0 -0 -0 0 0 0 0 -0 -0 -0 0 0 0 0
0 0 0 0 0 0 0 0 0 0 0 0 0 0 0 0 0 0 0 0 0 0 0 0 0 0 0 0 0 0 -0 -0 -0 0 0 0 0 -0 -0 -0 0 0 0 0
0 0 0 0 0 0 0 0 0 0 0 0 0 0 0 0 0 0 0 0 0 0 0 0 0 0 0 0 0 0 0 0 0 0 0 0 0 0 0 0 0 0 0 0
0 0 0 0 0 0 0 0 0 0 0 0 0 0 0 0 0 0 0 0 0 0 0 0 0 0 0 0 0 0 0 0 0 0 0 0 0 0 0 0 0 0 0 0
0 0 0 0 0 0 0 0 0 0 0 0 0 0 0 0 0 0 0 0 0 0 0 0 0 0 0 0 0 0 0 0 0 0 0 0 0 0 0 0 0 0 0 0
0 0 0 0 0 0 0 0 0 0 0 0 0 0 0 0 0 0 0 0 0 0 0 0 0 0 0 0 0 0 0 0 0 0 0 0 0 0 0 0 0 0 0 0
Wind_Speed
1 0 2 2 1 2 2 3 4 3 3 4 5 6 7 8 8 8 7 7 7 7 6 6 6 6 6 6 6 6 7 7 6 6 6 6 7 7 7 7 7 6 7 6
3 3 4 3 3 3 2 2 2 3 2 3 6 7 7 7 8 8 8 8 8 7 7 6 5 5 5 6 5 5 6 6 5 5 6 6 6 6 6 6 6 6 6 6
1 1 2 2 2 1 2 1 2 2 3 6 6 7 7 7 7 8 8 8 8 7 6 6 5 5 5 5 5 5 5 5 5 5 5 5 5 6 5 5 5 6 5 6
3 1 2 4 1 3 4 2 2 4 6 6 6 5 5 5 7 8 8 8 8 6 6 5 5 5 5 5 5 5 5 4 4 4 5 4 5 5 4 3 4 4 4 4
4 2 2 2 1 3 3 0 2 6 8 8 9 7 5 4 5 7 7 7 6 6 6 6 6 5 6 5 4 4 4 3 3 4 4 4 4 3 3 3 3 3 3 4
4 3 4 4 1 3 4 1 3 6 9 9 6 4 2 4 7 8 8 7 7 6 7 6 5 5 6 5 5 4 3 3 3 3 3 3 3 2 2 2 2 3 3 4
3 2 4 2 0 2 1 4 4 7 8 7 4 4 6 8 8 9 9 8 8 7 6 5 5 6 6 5 3 2 2 3 3 3 3 3 3 2 2 3 3 3 4 3
4 2 4 1 2 3 4 3 6 6 7 8 9 10 10 9 9 10 9 8 8 7 6 4 4 5 5 3 2 3 3 3 3 3 3 3 3 3 3 3 3 3 3 3
5 4 2 2 1 2 4 6 5 7 9 11 11 10 10 9 9 8 8 7 6 7 6 4 4 4 4 2 2 3 3 3 3 3 4 3 3 3 3 3 2 2 2 2
3 1 2 3 3 4 5 6 8 9 11 11 11 11 11 9 8 7 7 6 6 6 6 4 3 2 2 2 3 3 3 3 3 3 3 3 3 2 2 2 2 1 1 1
3 2 3 2 3 6 8 11 12 10 9 11 13 11 9 8 8 7 6 5 5 5 5 3 2 2 1 2 3 3 3 3 3 3 3 3 2 2 1 1 2 1 1 0
7 9 7 5 6 7 10 10 11 11 9 8 10 10 9 8 6 6 6 5 5 5 4 2 2 1 1 2 3 3 2 2 2 2 2 2 2 2 2 0 0 2 3 2
6 6 6 9 8 7 8 9 9 10 11 10 8 9 8 6 5 6 6 5 5 4 3 2 2 1 0 1 2 3 2 2 1 1 1 1 1 1 1 2 2 1 1 3
11 11 9 6 7 8 10 11 10 10 9 9 8 8 8 6 6 6 5 4 4 4 3 2 1 0 0 2 3 2 2 2 2 1 1 1 1 1 1 0 1 2 3 3
6 7 10 11 11 11 11 12 12 10 9 8 7 8 8 7 6 5 4 4 4 3 2 2 1 1 0 2 2 2 2 2 2 1 1 1 1 1 1 0 0 1 2 3
10 12 14 15 14 13 12 12 11 10 9 8 7 7 7 6 5 4 4 4 4 3 3 2 2 1 1 2 2 1 1 2 2 2 1 1 1 1 1 1 0 1 1 2
15 13 13 14 14 12 10 10 11 10 9 9 8 7 7 6 5 4 3 3 3 3 3 2 2 1 2 2 2 1 1 1 2 2 1 1 1 2 1 1 1 1 1 2
13 15 16 17 16 13 11 10 10 10 9 8 9 8 8 7 6 4 3 3 3 1 1 2 2 1 1 2 2 2 1 1 1 1 1 1 1 1 1 2 1 1 1 2
12 13 13 13 13 13 12 11 10 9 9 9 9 8 7 6 5 5 4 4 4 2 2 2 2 2 1 2 2 2 2 1 1 1 1 2 1 1 1 1 1 2 2 1
12 13 14 13 12 11 11 10 10 9 8 9 8 7 6 5 5 5 4 4 4 4 3 2 2 2 2 1 2 2 2 2 2 1 1 1 2 1 1 2 2 2 2 2
15 15 15 14 12 11 11 11 11 10 9 9 9 8 7 5 5 5 4 3 4 3 3 4 3 2 2 1 2 1 1 2 2 2 2 2 2 2 2 2 2 2 2 2
14 14 14 13 12 10 9 10 10 10 9 8 8 7 6 5 5 4 4 4 3 4 4 3 3 3 3 2 1 1 2 2 2 2 2 3 3 3 3 3 3 3 3 3
13 13 14 13 13 11 9 9 10 10 10 9 9 8 7 6 5 5 4 4 3 5 4 3 4 5 4 2 1 2 2 3 3 3 3 3 4 3 3 4 3 3 3 3
12 12 12 11 11 11 10 9 9 8 9 8 8 8 7 5 3 4 3 3 6 7 4 5 6 6 5 2 2 2 2 3 3 3 3 3 3 3 4 4 3 3 3 4
12 12 11 13 12 10 10 9 8 7 7 5 6 6 5 5 5 4 4 4 6 6 4 5 7 6 4 3 3 3 3 3 3 3 3 4 4 4 4 4 4 4 4 4
11 11 11 11 10 8 8 8 7 6 6 5 4 4 4 3 4 3 3 4 6 6 5 3 4 4 4 4 4 4 4 4 4 4 4 4 4 4 4 5 6 5 4 4
10 8 7 6 6 7 8 8 8 8 7 7 6 5 5 4 4 4 4 4 4 4 4 4 4 4 4 4 4 4 4 4 4 4 4 4 4 5 5 6 5 4 4 4
Wind_Direction
139 180 127 96 65 88 120 167 175 196 172 175 160 148 137 133 132 128 125 120 114 109 101 94 87 83 82 82 79 81 81 78 75 74 74 75 72 70 68 68 68 66 65 57
45 52 80 65 38 60 69 89 110 118 128 112 120 119 126 137 141 139 136 132 126 122 113 106 101 96 89 86 84 85 83 81 80 77 75 75 75 74 70 66 62 61 58 56
136 312 43 345 305 124 99 68 144 175 162 130 124 135 146 150 150 145 141 136 132 129 122 115 111 107 99 94 88 85 83 80 78 79 77 74 77 73 68 63 62 58 50 51
115 89 257 263 314 129 113 68 76 105 118 127 123 113 108 130 144 140 136 134 131 127 119 110 106 104 103 99 94 91 86 80 76 76 74 72 72 67 60 58 60 55 47 43
112 135 288 284 187 145 130 89 119 128 124 117 116 95 73 93 123 129 130 127 124 121 115 110 109 110 106 95 91 92 91 85 82 88 86 79 75 68 63 66 62 55 52 45
116 144 237 252 262 145 104 271 164 144 141 142 135 126 145 123 116 113 112 112 111 108 103 104 108 111 106 98 94 95 93 84 80 88 91 89 85 80 72 84 78 67 57 43
131 187 260 270 202 126 163 244 153 145 144 141 131 130 128 120 112 112 110 109 109 107 105 110 116 113 109 105 105 99 83 80 74 77 89 96 83 73 82 82 76 66 57 36
133 172 260 328 121 166 199 117 118 124 125 117 111 111 114 115 115 115 111 110 111 111 107 104 112 114 110 105 100 88 84 76 70 68 76 87 84 73 72 82 77 60 49 31
166 196 251 341 114 100 123 119 121 123 123 124 120 119 117 115 115 113 114 113 111 114 109 97 97 112 119 114 92 88 83 77 70 66 64 70 85 87 74 72 75 60 52 29
108 83 57 67 76 77 94 110 116 123 128 125 123 124 121 120 118 115 113 114 114 115 113 106 101 112 129 117 104 100 91 80 75 76 66 60 66 83 93 93 89 75 56 18
117 142 106 67 101 109 98 104 108 108 114 125 125 125 124 125 124 122 117 113 116 121 126 129 115 99 98 108 113 106 97 84 79 79 83 72 64 66 99 150 185 168 188 221
193 186 161 165 145 126 120 121 124 118 110 114 124 126 124 124 124 123 119 116 117 122 128 130 116 92 67 104 120 117 103 90 91 97 91 88 80 45 34 106 221 206 210 216
143 130 119 126 124 118 120 124 125 122 125 123 118 122 122 120 121 121 120 125 133 140 142 136 127 110 47 109 122 127 136 140 131 131 133 128 112 87 24 358 4 334 282 273
122 112 109 126 131 124 121 118 112 109 114 120 121 120 118 113 119 126 136 143 141 138 142 146 144 204 213 127 128 131 142 161 164 163 160 162 167 162 138 55 359 341 342 344
117 117 129 125 119 120 123 122 120 120 121 118 123 128 129 129 137 147 146 136 130 134 150 153 159 221 176 133 136 146 157 171 167 164 168 170 170 160 163 183 282 316 331 346
111 111 121 128 133 135 134 134 135 138 138 135 137 141 142 141 140 139 138 140 141 160 176 169 185 201 165 146 131 133 170 183 168 164 164 159 160 169 189 202 233 289 307 317
131 138 142 144 147 147 147 148 148 147 146 146 150 145 137 130 129 137 149 160 164 175 182 182 204 201 156 153 153 166 168 167 161 156 183 189 187 194 201 203 222 260 274 280
154 154 156 155 154 151 147 146 147 148 150 151 145 140 143 149 159 170 167 146 132 133 205 211 207 182 165 169 170 169 169 172 172 192 205 200 197 198 197 207 225 251 278 298
137 141 144 148 149 149 150 151 152 150 146 145 148 153 160 167 170 163 151 148 157 193 234 221 194 177 199 210 169 162 173 181 181 194 201 189 174 180 197 208 226 247 265 275
140 143 144 145 145 147 150 150 148 148 150 149 148 150 158 170 166 157 157 179 207 211 208 189 183 192 212 219 171 171 189 197 197 195 187 186 193 204 215 225 233 247 257 263
148 149 149 151 151 152 153 152 152 154 154 154 157 165 172 175 166 156 160 212 244 214 201 197 190 201 208 192 169 183 207 212 210 204 198 201 208 218 229 238 243 248 250 255
153 153 155 154 153 153 155 154 155 155 155 161 165 164 163 170 173 175 200 215 225 191 181 188 195 206 202 176 170 206 231 230 221 208 206 206 212 222 232 238 243 248 249 247
154 155 156 158 159 156 152 156 158 160 164 169 171 172 177 183 177 179 223 229 201 192 185 196 205 210 201 180 203 231 243 237 226 216 216 214 217 221 229 239 243 247 247 246
152 155 156 152 146 148 158 167 165 167 170 173 178 179 173 174 198 215 215 207 191 190 194 207 211 210 197 192 216 233 243 241 235 224 219 219 220 223 228 235 243 243 242 241
153 150 148 149 157 167 170 162 157 161 164 173 182 185 183 182 191 205 195 203 200 194 200 211 212 207 197 204 219 230 237 239 236 225 219 222 226 227 229 231 234 238 236 236
154 158 162 167 167 163 160 160 164 168 170 176 189 192 190 189 190 181 182 195 195 195 197 200 201 203 204 215 227 234 238 245 244 230 224 226 228 228 231 233 234 232 233 233
147 148 148 149 153 158 161 166 171 176 178 181 189 193 189 185 183 187 188 188 190 196 201 201 202 206 213 221 230 235 236 236 232 228 224 223 224 226 230 231 230 228 226 226